Torna al catalogo

ORBCOMM FM 29

AttivoComunicazioniLEO
NORAD 33062·PAYLOAD·🇺🇸 United States

Lanciato Jun 19, 2008 da Kapustin Yar

Loading…

Prossimi Passaggi (prossime 24 ore)

TLE

AggiornatoSource: Space-Track

Epoca: Sep 14, 2026, 14:45 UTC

1 33062U 08031C   26257.61471556  .00000939  00000-0  14083-3 0  9993
2 33062  48.4399 322.4000 0005634 192.1253 321.3790 14.83022609981553

Traccia ORBCOMM FM 29 in tempo reale con AllMySat

Download on the App Store